IUS DEB, 43362

Orbit data source: Space-Track

IUS DEB, 43362 is space debris originally from a launch on Fri, 23 Jul 1999 UTC launched from the Air Force Eastern Test Range (AFETR). Debris objects in space refer to the collection of defunct objects orbiting the Earth. Examples of debris include non-operational satellites, rocket bodies, and fragments generated from explosions, collisions, or faulty payload assembly.

Loading next visibility...
Identifier
43362, 1999-040K
Orbit
Active
Last TLE update
2 months ago
Origin
Manufacturer
Boeing/Kent
Mission
Spacecraft
Bus & Motor
Unknown
Mass
Unknown
Launch date (UTC)
1999-07-23 (26 years ago)
Launch vehicle
Unknown
Launch site
Air Force Eastern Test Range (AFETR)
Object type
Payload
Rocket body
Debris
Shape & HBR
Unknown
Radar Cross Section
Small (<0.1 m²)

Expand to show TLE details & history

TLE from 2 months ago
0 IUS DEB
1 43362U 99040K   25123.19979952 -.00000469  00000-0 -34902-2 0  9995
2 43362  28.0770 102.3150 3707401 168.6123 202.9324  7.09724090239100
Epoch: 2025-05-03T04:47Z
TLE epoch observation values (Epoch: 2025-05-03T04:47:42.678Z)
Latitude
0.00001°
Longitude
169.04172°
Altitude
9,117.479 km
Speed
4.075 km/s
True Right ascension
06h 49m 15s
True Declination
0° 00' 00"
Sunlit
Object was in daylight at epoch
Visualization orbit readout
Latitude
27.00202°
Longitude
150.01729°
Altitude
5,405.531 km
Speed
5.73 km/s
Apparent Right ascension
05h 24m 40s
Apparent Declination
12° 40' 13"
Sunlit
Object is in daylight
Visualization observer readout
Local Sidereal Time
05:42:53
Azimuth
189.652° SSW
Elevation
62.459°
Doppler factor
1
Orbital elements
Apogee altitude
9,304.511 km
Perigee altitude
821.23 km
Semi-major axis
11,441.008 km
Eccentricity
0.37074
Inclination
28.077°
RAAN
102.315°
Arg. of periapsis
168.6123°
True anomaly
Unknown
Mean anomaly
202.9324°
Eccentric anomaly
Unknown
Mean motion
1.77356 °/min
Orbital period
202.98 mins
BSTAR
-0.0034902
Loading maneuver chart data...
Loading SW <> Apogee altitude chart data...
Loading historical data...
Loading historical data...
Loading historical data...
Loading historical data...
Loading historical data...
Loading historical data...
Loading historical data...

IUS DEB Visibility forecast

Observer location: undefined°, undefined°

Span
Click to sort rows by Start time (UTC) header in descending order
Start Az.
Max El. time (UTC)
Max El. Az.
Max El.
End time (UTC)
End Az.
69 mins2025-07-01 18:03:11.792Z189.614° SSW2025-07-01 18:07:11.792Z166.71° S42.088°2025-07-01 19:12:11.792Z99.218° ESE
107 mins2025-07-01 21:26:11.792Z270.385° WNW2025-07-01 22:11:11.792Z204.465° SW40.62°2025-07-01 23:13:11.792Z137.681° SSE
77 mins2025-07-02 01:28:11.792Z273.347° WNW2025-07-02 02:11:11.792Z236.966° WSW21.445°2025-07-02 02:45:11.792Z194.122° SSW
27 mins2025-07-02 13:56:11.792Z168.41° S2025-07-02 14:04:11.792Z127.542° SE21.07°2025-07-02 14:23:11.792Z86.352° E
37 mins2025-07-02 17:26:11.792Z237.53° WSW2025-07-02 17:44:11.792Z165.297° S41.703°2025-07-02 18:03:11.792Z111.335° ESE
|